CW9443 Weather Reports


Display with metric or nautical units.
time (UTC)temp
F
wind
direction
speed
MPH
gust
MPH
rain 1hr
in
rain 24hr
in
rain mn
in
humidity
%
barometer
mb
20260902140028 56 230 0.0 0.0 0.00 0.00 0.00 90 1014.2
20260902134515 56 230 0.0 0.0 0.00 0.00 0.00 90 1014.0
20260902133014 56 230 0.0 0.0 0.00 0.00 0.00 89 1014.1
20260902131510 56 230 0.0 0.0 0.00 0.00 0.00 89 1014.1
20260902130009 56 230 0.0 0.0 0.00 0.00 0.00 89 1014.0
20260902124516 56 230 0.0 0.0 0.00 0.00 0.00 89 1014.0
20260902123008 56 230 0.0 0.0 0.00 0.00 0.00 89 1014.0
20260902121505 56 230 0.0 0.0 0.00 0.00 0.00 89 1013.7
20260902120008 56 230 0.0 0.0 0.00 0.00 0.00 88 1013.8
20260902114507 56 230 0.0 0.0 0.00 0.00 0.00 88 1013.9
20260902113002 56 230 0.0 0.0 0.00 0.00 0.00 88 1014.0
20260902111600 56 230 0.0 0.0 0.00 0.00 0.00 87 1013.9
20260902110059 56 230 0.0 0.0 0.00 0.00 0.00 87 1013.9
20260902104557 57 230 0.0 0.0 0.00 0.00 0.00 87 1013.9
20260902103100 58 230 0.0 0.0 0.00 0.00 0.00 87 1014.0
20260902101555 58 230 0.0 0.0 0.00 0.00 0.00 88 1014.0
20260902100051 58 230 0.0 0.0 0.00 0.00 0.00 88 1013.9
20260902094551 58 230 0.0 0.0 0.00 0.00 0.00 87 1014.0
20260902093116 58 230 0.0 0.0 0.00 0.00 0.00 86 1013.9
20260902091552 58 230 0.0 0.0 0.00 0.00 0.00 86 1014.0
20260902090054 58 230 0.0 0.0 0.00 0.00 0.00 85 1014.2
20260902084554 58 230 0.0 0.0 0.00 0.00 0.00 85 1014.2
20260902083052 58 230 0.0 0.0 0.00 0.00 0.00 85 1014.2
20260902081555 58 230 0.0 0.0 0.00 0.00 0.00 85 1014.1
20260902080044 59 230 0.0 0.0 0.00 0.00 0.00 83 1014.1
20260902074541 60 230 0.0 0.0 0.00 0.00 0.00 83 1014.1
20260902073041 60 230 0.0 0.0 0.00 0.00 0.00 82 1014.0
20260902071544 60 230 0.0 0.0 0.00 0.00 0.00 81 1013.9
20260902070038 61 230 0.0 0.0 0.00 0.00 0.00 81 1013.9
20260902064540 61 230 0.0 0.0 0.00 0.00 0.00 80 1013.7
20260902063041 61 230 0.0 0.0 0.00 0.00 0.00 80 1013.6
20260902061546 61 230 0.0 0.0 0.00 0.00 0.00 80 1013.5
20260902060034 61 230 0.0 0.0 0.00 0.00 0.00 80 1013.4
20260902054539 62 230 0.0 0.0 0.00 0.00 0.00 80 1013.6
20260902053034 62 230 0.0 0.0 0.00 0.00 0.00 80 1013.6
20260902051532 62 230 0.0 0.0 0.00 0.00 0.00 80 1013.6
20260902050034 62 230 0.0 0.0 0.00 0.00 0.00 78 1013.6
20260902044530 62 230 0.0 0.0 0.00 0.00 0.00 77 1013.6
20260902043029 63 230 0.0 0.0 0.00 0.00 0.00 77 1013.3
20260902041530 63 230 0.0 0.0 0.00 0.00 0.00 76 1013.3
20260902040027 64 230 0.0 0.0 0.00 0.00 0.00 76 1013.2
20260902034532 64 230 0.0 0.0 0.00 0.00 0.00 75 1013.0
20260902033026 65 230 0.0 0.0 0.00 0.00 0.00 74 1012.9
20260902031526 66 230 0.0 0.0 0.00 0.00 0.00 72 1012.7
20260902030027 66 230 0.0 0.0 0.00 0.00 0.00 71 1012.6
20260902024524 67 230 0.0 0.0 0.00 0.00 0.00 67 1012.4
20260902023023 68 230 0.0 0.0 0.00 0.00 0.00 66 1012.3
20260902021533 69 230 0.0 0.0 0.00 0.00 0.00 65 1012.3
20260902020025 70 229 0.0 0.0 0.00 0.00 0.00 61 1012.2
20260902014526 71 229 0.0 0.0 0.00 0.00 0.00 58 1012.2
20260902013021 73 228 0.0 0.0 0.00 0.00 0.00 55 1012.1
20260902011518 73 229 0.0 0.0 0.00 0.00 0.00 55 1012.1
20260902010020 73 227 0.0 0.0 0.00 0.00 0.00 55 1012.3
20260902004520 74 230 0.0 0.0 0.00 0.00 0.00 56 1012.3
20260902003015 74 231 0.0 0.0 0.00 0.00 0.00 57 1012.3
20260902001511 74 228 0.0 0.0 0.00 0.00 0.00 58 1012.4
20260902000013 75 221 0.0 0.0 0.00 0.00 0.00 57 1012.4
20260901234508 75 232 0.0 0.0 0.00 0.00 0.00 58 1012.6
20260901233014 75 229 0.0 0.0 0.00 0.00 0.00 58 1012.5
20260901231507 76 250 0.0 0.0 0.00 0.00 0.00 57 1012.7
20260901230006 77 232 0.0 0.0 0.00 0.00 0.00 56 1012.6
20260901224506 77 248 0.0 0.0 0.00 0.00 0.00 55 1012.8
20260901223006 77 230 0.0 0.0 0.00 0.00 0.00 56 1012.8
20260901221505 77 246 1.0 0.0 0.00 0.00 0.00 57 1012.9
20260901220002 77 227 1.0 0.0 0.00 0.00 0.00 57 1013.0
20260901214503 78 229 0.0 0.0 0.00 0.00 0.00 57 1013.1
20260901213001 78 226 0.0 0.0 0.00 0.00 0.00 56 1013.1
20260901211603 79 242 0.0 0.0 0.00 0.00 0.00 56 1013.2
20260901210100 79 250 0.0 0.0 0.00 0.00 0.00 56 1013.2
20260901210002 79 257 0.0 0.0 0.00 0.00 0.00 56 1013.2
20260901204603 78 215 1.0 0.0 0.00 0.00 0.00 56 1013.2
20260901203124 79 227 0.0 0.0 0.00 0.00 0.00 56 1013.4
20260901201600 79 233 1.0 0.0 0.00 0.00 0.00 56 1013.5
20260901200058 79 233 1.0 0.0 0.00 0.00 0.00 56 1013.7
20260901200001 79 235 1.0 0.0 0.00 0.00 0.00 57 1013.6
20260901194600 80 241 1.0 0.0 0.00 0.00 0.00 55 1013.8
20260901193102 79 243 0.0 0.0 0.00 0.00 0.00 56 1013.9
20260901190106 78 238 0.0 0.0 0.00 0.00 0.00 57 1014.1
20260901184551 77 237 0.0 0.0 0.00 0.00 0.00 59 1014.1
20260901183046 76 227 0.0 0.0 0.00 0.00 0.00 60 1014.2
20260901181546 76 232 0.0 0.0 0.00 0.00 0.00 62 1014.1
20260901180040 74 230 0.0 0.0 0.00 0.00 0.00 64 1014.1
20260901174540 73 230 0.0 0.0 0.00 0.00 0.00 67 1014.1
20260901173034 71 230 0.0 0.0 0.00 0.00 0.00 69 1013.9
20260901171534 69 231 0.0 0.0 0.00 0.00 0.00 74 1013.9
20260901170029 68 231 0.0 0.0 0.00 0.00 0.00 76 1014.1
20260901164524 66 231 0.0 0.0 0.00 0.00 0.00 81 1014.1
20260901163025 65 231 0.0 0.0 0.00 0.00 0.00 82 1014.2
20260901161518 63 231 0.0 0.0 0.00 0.00 0.00 86 1014.1
20260901160021 62 231 0.0 0.0 0.00 0.00 0.00 87 1014.0
20260901154514 62 231 0.0 0.0 0.00 0.00 0.00 89 1013.8
20260901153010 60 230 0.0 0.0 0.00 0.00 0.00 93 1013.7
20260901151507 59 230 0.0 0.0 0.00 0.00 0.00 93 1013.8
20260901150011 59 230 0.0 0.0 0.00 0.00 0.00 93 1013.7
20260901144505 58 231 0.0 0.0 0.00 0.00 0.00 93 1013.7
20260901143004 58 231 0.0 0.0 0.00 0.00 0.00 93 1013.5
20260901141611 58 231 0.0 0.0 0.00 0.00 0.00 93 1013.3